Location: Amsterdam
(30.7274°N, 84.4357°W)
Time: 20:38:41
(UTC+00:00)

Tiros 1 despin weight - Pass Details

Date: 26 February 2026
Orbit: 556 x 593 km, 48.2° (Epoch: 7 March)

Event Time Altitude Azimuth Distance (km) Brightness Sun altitude
Rises 17:08:14 0° 253° (WSW) 2,771 ? 49.5°
Reaches altitude 10° 17:10:43 10° 264° (W) 1,868 ? 49.6°
Maximum altitude 17:14:30 30° 327° (NNW) 1,021 ? 49.8°
Drops below altitude 10° 17:18:16 10° 30° (NNE) 1,853 ? 50.0°
Sets 17:20:44 0° 41° (NE) 2,745 ? 50.1°
